Flag for Germany Weather past 2 weeks in Lörrach, Baden-Württemberg, Germany

50 °F


Feels Like: 50 °F
Forecast: 51 / 69 °F
Wind: 2 mph from Southwest

Location: Bale-Mulhouse

Current Time: Oct 4, 2015 at 10:28:34 PM

Latest Report: Oct 4, 2015 at 10:00 PM

Visibility: 10 mi

Pressure: 30.01 "Hg

Humidity: 88%

Dew point: 46 °F

Location of LörrachLocation

Historic Weather in Lörrach — Graph


Lörrach temperature yesterday

Maximum temperature yesterday: 72 °F (at 4:00 PM)
Minimum temperature yesterday: 46 °F (at 4:00 AM)
Average temperature yesterday: 58 °F

Past Weeks' High & Low Weather Summary

High72 °F (Sep 21, 4:30 PM)100% (Sep 19, 10:00 PM)30.45 "Hg (Sep 19, 10:00 PM)
Low36 °F (Sep 30, 7:30 AM)37% (Sep 28, 3:00 PM)29.68 "Hg (Sep 22, 5:30 PM)
Average54 °F76%30.15 "Hg
* Reported Sep 19 9:00 PM — Oct 4 9:00 PM, Lörrach, Weather by CustomWeather, © 2015

Note: Actual official high and low records may vary slightly from our data, if they occured in-between our weather recording intervals... More about our weather records


Lörrach weather history for previous 24 hours

Time TempWeatherWind HumidityBarometerVisibility
9:00 PM
Sun, Oct 4
50 °FClear.2 mph94%30.01 "Hg10 mi
8:30 PM52 °FClear.2 mph88%30.01 "Hg10 mi
8:00 PM54 °FPassing clouds.3 mph82%30.01 "HgN/A
7:30 PM57 °FSunny.2 mph72%30.01 "Hg10 mi
7:00 PM61 °FSunny.3 mph59%30.01 "Hg10 mi
6:30 PM63 °FPassing clouds.5 mph59%30.01 "HgN/A
6:00 PM64 °FScattered clouds.5 mph56%30.01 "HgN/A
5:30 PM64 °FPassing clouds.5 mph56%30.01 "HgN/A
4:30 PM66 °FPassing clouds.3 mph49%30.04 "HgN/A
4:00 PM64 °FPassing clouds.3 mph56%30.04 "HgN/A
3:30 PM64 °FPassing clouds.3 mph56%30.04 "HgN/A
3:00 PM64 °FPassing clouds.3 mph60%30.07 "HgN/A
2:30 PM64 °FPassing clouds.3 mph56%30.07 "HgN/A
2:00 PM63 °FPassing clouds.3 mph64%30.07 "HgN/A
1:30 PM61 °FScattered clouds.2 mph68%30.09 "HgN/A
1:00 PM61 °FScattered clouds.3 mph68%30.09 "HgN/A
12:30 PM59 °FScattered clouds.5 mph72%30.12 "HgN/A
12:00 PM59 °FScattered clouds.3 mph72%30.12 "HgN/A
11:30 AM59 °FScattered clouds.3 mph77%30.12 "HgN/A
11:00 AM59 °FScattered clouds.3 mph77%30.12 "HgN/A
10:30 AM57 °FScattered clouds.3 mph82%30.12 "HgN/A
10:00 AM55 °FScattered clouds.1 mph88%30.12 "HgN/A
9:30 AM54 °FScattered clouds.3 mph94%30.12 "HgN/A
9:00 AM54 °FBroken clouds.2 mph94%30.12 "HgN/A
8:30 AM54 °FPassing clouds.3 mph94%30.09 "HgN/A
8:00 AM52 °FPartly cloudy.2 mph100%30.09 "HgN/A
7:30 AM52 °FPartly cloudy.3 mph100%30.09 "HgN/A
7:00 AM54 °FPartly cloudy.2 mph94%30.09 "HgN/A
6:30 AM54 °FLight rain. Passing clouds.6 mph94%30.07 "Hg5 mi
6:00 AM54 °FRain. Partly cloudy.3 mph94%30.09 "Hg4 mi
5:30 AM54 °FLight rain. Passing clouds.2 mph94%30.09 "Hg4 mi
5:00 AM54 °FLight rain. Partly cloudy.1 mph100%30.07 "HgN/A
4:30 AM55 °FLight rain. Passing clouds.No wind94%30.07 "Hg5 mi
4:00 AM55 °FRain. Fog.2 mph94%30.07 "Hg3 mi
3:30 AM55 °FRain. Passing clouds.3 mph94%30.07 "Hg4 mi
3:00 AM55 °FRain. Fog.3 mph100%30.04 "Hg3 mi
2:30 AM55 °FLight rain. Mostly cloudy.1 mph94%30.04 "Hg5 mi
2:00 AM55 °FLight rain. Mostly cloudy.2 mph100%30.01 "HgN/A
1:30 AM55 °FClear.3 mph100%30.01 "Hg10 mi
1:00 AM57 °FLight rain. Clear.6 mph88%30.01 "HgN/A
11:30 PM
Sat, Oct 3
59 °FClear.2 mph77%30.01 "Hg10 mi
11:00 PM59 °FClear.6 mph77%29.98 "Hg10 mi
10:30 PM59 °FPassing clouds.3 mph72%29.98 "HgN/A
10:00 PM59 °FClear.7 mph72%29.95 "Hg10 mi
Weather by CustomWeather, © 2015

See weather overviewHow to use our weather pages